This demonstration page uses our WeatherBlox Daily Observations layout. Learn more.

38.88101, -77.10428

Hourly Observations for June 2, 2015

Temp ( °F °C ) Dew Point ( °F °C ) Humidity (%) Winds ( mph kmh ) Pressure ( in mb ) Visibility ( mi km ) Precip ( " mm )
12:34 am 00:34 Cloudy with Light Rain 73 23 68 20 83 83 E 5 7 30.03 1017 10 16.0934 0 0
12:49 am 00:49 Cloudy with Heavy Rain 73 23 70 21 89 89 Calm 30.03 1017 3 4.82802 0.03 0.762
12:52 am 00:52 Cloudy with Rain 73 22.8 69 20.6 87 87 Calm 30.02 1017 3 4.82802 0.04 1.016
12:59 am 00:59 Cloudy with Light Rain 72 22 68 20 88 88 VRB 3 6 30.03 1017 6 9.65604 0.01 0.254
1:08 am 01:08 Cloudy with Heavy Rain 72 22 68 20 88 88 Calm 30.03 1017 4 6.43736 0 0
1:13 am 01:13 Cloudy with Heavy Rain 72 22 68 20 88 88 Calm 30.03 1017 2.5 4.02335 0.06 1.524
1:21 am 01:21 Cloudy with Heavy Rain 72 22 68 20 88 88 E 5 7 30.03 1017 3 4.82802 0.14 3.556
1:25 am 01:25 Cloudy with Heavy Thunderstorms 72 22 68 20 88 88 E 6 9 30.03 1017 3 4.82802 0.17 4.318
1:52 am 01:52 Cloudy with Thunderstorms 72 22.2 68 20 87 87 ENE 9 15 30 1016 4 6.43736 0.29 7.366
1:56 am 01:56 Cloudy with Rain 72 22 70 21 94 94 ENE 9 15 30 1016 5 8.0467 0 0
2:27 am 02:27 Cloudy with Rain 72 22 70 21 94 94 E 7 11 29.97 1015 7 11.26538 0.1 2.54
2:52 am 02:52 Cloudy with Light Rain 72 22.2 67 19.4 84 84 SE 6 9 29.97 1015 10 16.0934 0.13 3.302
3:03 am 03:03 Cloudy with Light Rain 72 22 66 19 83 83 SSE 6 9 29.97 1015 10 16.0934 0 0
3:52 am 03:52 Cloudy 71 21.7 67 19.4 87 87 S 7 11 29.99 1016 10 16.0934 0.01 0.254
4:17 am 04:17 Cloudy 72 22 66 19 83 83 SW 3 6 30 1016 10 16.0934 0 0
4:26 am 04:26 Cloudy 72 22 66 19 83 83 SW 5 7 30 1016 10 16.0934 0 0
4:52 am 04:52 Cloudy 71 21.7 66 18.9 84 84 SW 3 6 29.99 1016 10 16.0934 0 0
4:59 am 04:59 Cloudy 72 22 66 19 83 83 Calm 30 1016 10 16.0934 0 0
5:46 am 05:46 Cloudy 72 22 66 19 83 83 Calm 30 1016 10 16.0934 0 0
5:52 am 05:52 Cloudy 72 22.2 67 19.4 84 84 Calm 30 1016 10 16.0934 0 0
5:59 am 05:59 Cloudy 72 22 66 19 83 83 Calm 30 1016 10 16.0934 0 0
6:07 am 06:07 Cloudy 72 22 66 19 83 83 Calm 30 1016 10 16.0934 0 0
6:44 am 06:44 Cloudy 70 21 66 19 88 88 NNE 13 20 30 1016 7 11.26538 0 0
6:52 am 06:52 Cloudy with Light Drizzle 70 21.1 66 18.9 87 87 NE 10 17 30 1016 5 8.0467 0 0.0254
7:52 am 07:52 Cloudy 67 19.4 63 17.2 87 87 NNE 13 20 30.02 1017 7 11.26538 0 0.0254
8:32 am 08:32 Cloudy with Light Rain 64 18 63 17 94 94 NNE 14 22 30.03 1017 5 8.0467 0 0
8:52 am 08:52 Cloudy with Light Rain 65 18.3 61 16.1 87 87 NE 15 24 30.05 1018 4 6.43736 0 0.0254
9:01 am 09:01 Cloudy with Light Rain 64 18 61 16 88 88 NNE 13 20 30.06 1018 2.5 4.02335 0 0.0254
9:18 am 09:18 Cloudy with Light Rain 64 18 61 16 88 88 NNE 12 19 30.06 1018 3 4.82802 0 0
9:35 am 09:35 Cloudy with Light Rain 64 18 61 16 88 88 NNE 13 20 30.06 1018 4 6.43736 0.01 0.254
9:52 am 09:52 Cloudy with Mist and Fog 64 17.8 60 15.6 87 87 N 13 20 30.07 1018 6 9.65604 0.01 0.254
10:52 am 10:52 Cloudy 63 17.2 58 14.4 84 84 NE 16 26 30.09 1019 8 12.87472 0 0
11:52 am 11:52 Cloudy with Haze 63 17.2 58 14.4 84 84 NE 13 20 30.1 1019 6 9.65604 0 0
12:01 pm 12:01 Cloudy with Haze 63 17 57 14 83 83 NNE 14 22 30.09 1019 6 9.65604 0 0
12:45 pm 12:45 Cloudy with Light Rain 63 17 57 14 83 83 NNE 12 19 30.12 1020 2 3.21868 0.01 0.254
12:52 pm 12:52 Cloudy with Light Rain 62 16.7 58 14.4 86 86 NNE 12 19 30.1 1019 2 3.21868 0.01 0.254
1:04 pm 13:04 Cloudy with Light Rain 63 17 57 14 83 83 NE 12 19 30.09 1019 3 4.82802 0 0
1:21 pm 13:21 Cloudy with Light Rain 63 17 57 14 83 83 NE 13 20 30.09 1019 6 9.65604 0 0.0254
1:30 pm 13:30 Cloudy with Light Drizzle 63 17 57 14 83 83 NNE 10 17 30.09 1019 7 11.26538 0 0
1:52 pm 13:52 Cloudy with Light Drizzle 63 17.2 58 14.4 84 84 NNE 12 19 30.09 1019 7 11.26538 0 0.0254
2:52 pm 14:52 Cloudy 64 17.8 58 14.4 81 81 NNE 14 22 30.08 1019 10 16.0934 0 0.0254
3:52 pm 15:52 Cloudy 63 17.2 57 13.9 81 81 NE 12 19 30.08 1019 10 16.0934 0 0
4:52 pm 16:52 Cloudy 63 17.2 57 13.9 81 81 NE 15 24 30.08 1019 10 16.0934 0 0
5:52 pm 17:52 Cloudy 62 16.7 57 13.9 84 84 NE 10 17 30.1 1019 10 16.0934 0 0
6:42 pm 18:42 Cloudy with Light Rain 63 17 57 14 83 83 NE 10 17 30.09 1019 9 14.48406 0 0
6:52 pm 18:52 Cloudy with Light Rain 62 16.7 57 13.9 84 84 NE 13 20 30.09 1019 10 16.0934 0 0.0254
7:13 pm 19:13 Cloudy 63 17 55 13 77 77 NNE 12 19 30.12 1020 10 16.0934 0 0.0254
7:52 pm 19:52 Cloudy 62 16.7 56 13.3 80 80 NE 9 15 30.11 1020 10 16.0934 0 0.0254
8:52 pm 20:52 Cloudy 62 16.7 56 13.3 80 80 NNE 12 19 30.11 1020 10 16.0934 0 0
9:52 pm 21:52 Cloudy 61 16.1 56 13.3 84 84 N 13 20 30.12 1020 10 16.0934 0 0
10:52 pm 22:52 Cloudy with Light Drizzle 61 16.1 56 13.3 84 84 NNE 13 20 30.13 1020 7 11.26538 0 0.0254
11:44 pm 23:44 Cloudy with Light Drizzle 61 16 55 13 83 83 NNE 13 20 30.15 1021 3 4.82802 0 0
11:52 pm 23:52 Cloudy with Light Drizzle 60 15.6 57 13.9 90 90 NNE 10 17 30.14 1021 3 4.82802 0 0.0254
11:56 pm 23:56 Cloudy with Light Drizzle 61 16 57 14 88 88 NNE 10 17 30.15 1021 2.5 4.02335 0.01 0.254

Powered by AerisWeather